Regional Weather Roundup
Issued by NWS Raleigh/Durham, NC

Home | Current Version | Previous Version | Text Only | Print | Product List | Glossary On
Versions: 1 2 3 4 5 6 7 8 9 10 11 12 13 14 15 16 17 18 19 20 21 22 23 24 25 26 27 28 29 30 31 32 33 34 35 36 37 38 39 40 41 42 43 44 45 46 47 48 49 50
310
ASUS42 KRAH 051310
RWRRAH
NORTH CAROLINA WEATHER ROUNDUP
NATIONAL WEATHER SERVICE RALEIGH NC
800 AM EST MON DEC 05 2016

NOTE: "FAIR" INDICATES FEW OR NO CLOUDS BELOW 12,000 FEET WITH NO
SIGNIFICANT WEATHER AND/OR OBSTRUCTIONS TO VISIBILITY.

NCZ001-053-055-056-065-067-051400-
WESTERN NORTH CAROLINA

CITY           SKY/WX    TMP DP  RH WIND       PRES   REMARKS
ASHEVILLE      CLEAR     44  41  89 N9G16     30.00S
JEFFERSON      CLOUDY    43  40  89 N7        29.98S
MORGANTON      FOG       39  39 100 CALM      30.04R VSB<1/4
HICKORY        FOG       40  40 100 CALM      29.99S VSB<1/4
RUTHERFORDTON  FOG       40  40 100 CALM      30.01R VSB 1/2
MOUNT AIRY     CLOUDY    39  37  94 CALM      30.00R FOG
BOONE          CLOUDY    42  42 100 W5        30.00R FOG
$$

NCZ021-022-025-041-071-084-088-051400-
CENTRAL NORTH CAROLINA

CITY           SKY/WX    TMP DP  RH WIND       PRES   REMARKS
CHARLOTTE      CLOUDY    43  41  93 CALM      30.01S
GREENSBORO     CLOUDY    42  41  96 CALM      29.99R
WINSTON-SALEM  CLOUDY    41  39  93 SW3       30.01R
RALEIGH-DURHAM MOCLDY    43  41  93 CALM      30.00R FOG
FORT BRAGG     CLOUDY    44  43  94 CALM      29.99S
FAYETTEVILLE   CLOUDY    45  44  97 N3        30.01R
BURLINGTON     PTCLDY    42  42 100 CALM      30.00R
LAURINBURG     CLOUDY    45  43  93 E3        30.01F
$$

NCZ011-015-027-028-043-044-047-080-103-051400-
NORTHEASTERN NORTH CAROLINA

CITY           SKY/WX    TMP DP  RH WIND       PRES   REMARKS
ROCKY MT-WILSO CLOUDY    44  44 100 N3        30.00R
GREENVILLE     CLOUDY    45  45 100 N5        29.99F
WASHINGTON     CLOUDY    45  44  96 N10       29.97F
ELIZABETH CITY CLOUDY    47  46  97 N13       29.96F
MANTEO         DRIZZLE   51  51 100 N9        29.94S
CAPE HATTERAS  CLOUDY    59  58  96 NW7       29.90R
$$

NCZ078-087-090-091-093-098-101-051400-
SOUTHEASTERN NORTH CAROLINA

CITY           SKY/WX    TMP DP  RH WIND       PRES   REMARKS
LUMBERTON      CLOUDY    45  45 100 N6        30.02R
GOLDSBORO      CLOUDY    45  45 100 N3        29.98R
KINSTON        CLOUDY    45  45 100 N7        30.00R
KENANSVILLE    CLOUDY    45  45 100 NW7       30.01R
NEW BERN       LGT RAIN  48  47  96 N9        29.98R
CHERRY POINT   CLOUDY    52  50  93 N14       29.96R
BEAUFORT       LGT RAIN  60  59  96 NW7       29.94R FOG
JACKSONVILLE   CLOUDY    49  48  97 NW12      29.96R FOG
WILMINGTON     CLOUDY    52  52 100 NW10      29.98R
$$





USA.gov is the U.S. government's official web portal to all federal, state and local government web resources and services.